{"data":{"norad_id":68739,"epoch":"2026-09-20T00:54:18.962208Z","epoch_age_seconds":81154,"freshness":"FRESH","line1":"1 68739U 26082M   26263.03771947  .00014038  00000+0  43614-3 0  9994","line2":"2 68739  97.2844 125.1785 0002650  89.2292 270.9255 15.33457532 24232","mean_motion":15.33457532,"eccentricity":0.000265,"inclination_deg":97.2844,"raan_deg":125.1785,"arg_perigee_deg":89.2292,"mean_anomaly_deg":270.9255,"bstar":0.00043614,"rev_number":2423,"period_min":93.905437219503,"perigee_km":463.69232295167,"apogee_km":467.31945368248,"semimajor_km":6843.6428883171,"source":"CELESTRAK","updated_at":"2026-09-20T09:00:43.993051Z"}}